Wind_Speed
5 6 6 7 8 7 6 6 7 7 8 8 9 9 9 9 9 9 9 10 10 10 9 9 9 9 9 9 9 9 9 8 8 9 8 9 9 9 9 9 8 9 9
4 5 6 7 7 7 6 6 6 7 7 8 9 9 9 9 9 9 9 9 9 9 9 8 8 8 8 8 8 8 8 8 8 8 8 8 8 8 8 8 8 8 8
3 4 5 6 7 6 6 6 6 6 6 7 7 8 8 9 9 9 9 9 9 8 8 8 8 8 8 8 7 7 7 7 7 7 7 7 7 7 8 8 8 8 8
2 4 4 5 6 6 5 5 5 5 5 5 6 6 7 8 8 8 8 8 8 8 8 8 7 7 7 7 6 7 7 7 7 7 6 6 7 7 7 7 7 8 7
2 3 4 4 5 6 5 5 5 5 5 5 6 6 6 7 7 7 7 7 6 6 6 6 6 6 6 6 6 5 5 6 6 6 5 6 6 7 7 7 7 7 7
2 3 4 4 5 5 5 5 5 5 5 5 5 5 5 5 5 5 6 6 5 5 6 6 6 6 5 5 5 5 5 6 5 5 5 5 6 6 6 7 6 6 6
2 4 4 4 5 5 5 5 5 5 5 5 5 5 4 4 4 4 5 5 5 5 5 5 5 5 5 5 4 5 5 5 5 5 5 5 5 5 5 5 5 6 6
1 2 3 4 4 5 5 5 5 5 6 5 5 4 3 3 3 3 4 4 4 4 4 4 5 5 4 4 4 4 4 4 4 4 4 4 4 4 4 4 4 5 5
1 1 3 4 4 5 5 5 5 6 6 5 5 4 4 3 3 3 3 4 3 3 4 4 4 4 4 4 4 3 3 4 3 3 3 3 3 3 3 3 3 4 4
1 2 3 4 5 5 6 6 6 6 6 6 6 5 4 3 3 2 3 3 3 3 3 4 4 4 4 3 3 2 3 3 3 3 3 2 2 2 3 3 3 3 4
2 2 2 4 5 6 6 7 6 7 7 6 6 5 5 3 3 3 2 2 2 2 2 3 3 3 3 3 2 2 2 2 2 2 2 2 2 1 2 2 2 2 3
3 3 3 4 5 6 6 7 7 7 7 6 6 5 5 4 3 4 3 3 2 2 2 2 2 3 3 2 2 2 2 2 1 1 1 2 1 1 1 2 2 2 2
4 4 4 4 5 6 6 7 8 8 7 7 7 6 5 5 4 4 3 2 2 2 2 2 2 3 3 3 2 1 1 1 1 1 1 1 1 1 1 2 2 2 2
5 4 4 5 5 6 7 7 8 8 8 8 7 7 6 6 5 4 3 2 3 2 2 3 3 3 2 2 1 1 1 1 1 0 1 1 1 1 1 1 1 2 2
6 5 5 5 5 6 7 8 8 8 9 9 8 7 7 6 6 5 5 3 3 3 3 3 3 2 2 2 1 1 1 0 1 0 0 1 1 1 1 1 1 1 1
7 6 6 6 6 6 7 7 8 9 10 10 9 9 8 7 7 7 6 5 4 4 4 4 4 3 2 2 2 1 1 1 0 0 0 1 1 1 1 0 0 1 1
9 8 7 6 6 7 7 8 8 9 10 11 10 10 9 8 8 8 7 6 5 5 5 4 4 3 2 2 2 1 1 1 1 0 1 1 1 1 1 0 0 1 1
9 9 8 7 7 7 8 9 9 9 10 11 12 11 10 9 8 9 8 8 7 7 6 5 4 4 3 3 3 2 1 1 1 1 1 1 1 0 1 1 1 1 2
10 9 9 8 7 7 8 8 8 10 10 11 12 12 11 11 10 9 9 9 8 8 7 6 6 5 4 4 4 3 3 2 1 1 1 1 1 1 1 1 1 2 2
10 10 10 9 8 8 8 8 8 9 10 11 12 12 12 12 12 10 10 10 10 9 9 8 8 7 6 5 5 4 3 3 2 2 2 2 2 2 2 2 2 2 3
11 11 10 9 9 9 9 9 9 9 10 11 11 12 13 13 13 12 12 12 11 11 11 10 9 8 7 6 6 5 4 4 4 4 3 3 3 3 3 3 3 3 3
13 12 11 11 11 10 10 10 10 10 10 10 11 13 14 14 15 14 13 13 12 12 12 12 11 10 9 8 7 7 7 6 6 5 4 4 4 4 4 4 4 5 5
13 13 13 12 12 11 11 11 11 11 11 10 11 12 14 15 15 15 15 14 13 13 13 13 13 12 11 10 10 9 9 8 7 7 6 6 5 5 5 5 6 6 7
14 14 12 13 13 13 12 12 11 12 12 12 12 12 14 14 14 15 16 16 15 14 14 14 14 13 13 12 11 11 10 10 10 8 8 7 6 6 7 7 7 8 8
14 13 13 14 14 14 14 13 13 13 12 12 12 13 14 15 15 15 17 17 17 16 16 16 15 15 14 13 13 12 12 12 11 11 10 9 9 8 8 8 8 8 9
13 13 14 14 15 15 14 14 14 14 14 13 13 14 14 15 15 15 16 17 18 18 17 17 17 16 15 15 15 15 14 13 13 12 12 12 11 10 10 10 10 10 10
Wind_Direction
134 140 146 145 145 140 142 144 143 145 142 138 134 130 126 121 118 116 112 108 105 102 98 96 95 95 95 93 92 90 87 86 86 86 84 80 77 75 73 71 68 71 69
135 142 152 155 152 151 153 157 154 154 151 147 140 134 132 128 124 121 118 111 107 103 99 97 96 97 97 95 93 93 90 89 89 88 85 81 78 76 75 71 69 68 67
148 149 158 166 161 161 165 171 167 162 160 156 147 139 133 129 123 121 117 112 109 105 103 99 97 97 98 97 96 94 93 93 93 90 87 82 77 76 74 70 67 64 63
162 162 164 169 170 171 175 181 181 177 175 166 156 147 140 134 127 124 119 115 111 108 104 101 99 100 100 99 97 95 95 96 94 92 87 83 77 74 70 67 63 61 60
183 176 176 177 177 180 186 191 194 192 190 178 166 156 146 139 133 126 120 117 114 111 109 106 105 104 103 103 103 97 92 94 92 92 90 85 78 72 67 64 61 59 56
200 191 185 185 184 187 193 198 203 202 198 188 177 167 155 145 139 132 126 123 119 114 112 110 109 109 108 109 106 100 97 96 90 89 86 85 76 69 62 59 57 55 52
223 204 198 199 197 195 197 205 213 212 206 199 189 179 167 154 145 139 133 129 124 119 112 110 112 114 114 113 107 102 97 94 87 82 82 83 75 67 60 54 55 54 51
230 208 205 203 201 200 203 212 221 220 216 208 203 197 184 166 158 146 139 134 127 123 121 119 117 120 120 119 113 103 96 91 83 78 75 74 71 65 59 52 55 53 51
214 217 214 215 210 210 215 220 223 225 225 220 219 219 210 192 180 161 151 141 134 128 126 127 129 129 129 127 125 113 97 88 85 76 70 68 65 58 53 51 54 51 47
277 243 234 225 217 217 220 227 230 229 230 231 229 231 233 225 211 182 163 150 141 134 132 132 140 141 137 137 135 129 115 96 84 78 65 54 50 46 45 46 50 44 39
306 275 256 237 226 223 226 230 237 235 235 237 234 237 242 244 221 201 186 166 155 147 148 147 146 154 150 146 147 138 119 97 83 74 58 38 34 33 28 31 32 35 33
325 299 274 249 231 228 232 234 239 239 238 239 240 243 244 242 229 214 202 201 189 167 155 158 153 152 155 157 152 148 131 115 93 75 52 31 28 20 11 14 10 17 22
324 308 282 260 240 234 239 240 241 241 240 239 239 243 246 243 241 227 227 225 215 202 181 161 150 153 165 168 170 164 149 122 106 75 42 22 21 5 356 13 10 359 8
323 314 298 276 255 243 245 247 243 243 245 243 245 243 247 254 246 237 237 240 225 219 199 184 176 176 173 161 175 176 154 131 112 23 12 14 12 353 358 3 12 17 21
329 318 304 289 267 251 250 248 245 241 242 243 246 246 246 252 256 253 246 247 249 237 222 208 194 186 190 189 197 201 188 140 127 186 311 17 21 12 5 1 21 22 17
328 318 307 292 270 256 254 253 248 246 242 244 245 246 249 250 252 255 253 252 259 252 234 220 204 196 191 194 202 212 239 246 174 217 316 339 341 333 352 9 336 322 338
320 316 309 298 276 262 262 260 255 250 248 247 246 245 247 248 252 254 253 255 257 253 244 227 208 209 207 210 221 232 251 254 239 279 305 308 309 327 350 341 356 326 324
315 314 306 302 286 275 271 268 267 259 255 252 246 246 246 245 249 252 251 254 256 254 250 239 225 225 223 226 231 230 248 272 241 286 310 296 287 313 335 319 328 323 320
309 309 304 302 295 284 283 276 270 265 261 257 249 247 247 246 247 248 250 252 255 257 253 244 236 234 235 235 235 237 247 258 259 272 284 288 286 291 288 297 309 316 317
302 300 299 299 298 287 288 285 277 274 267 261 253 246 244 244 245 247 248 250 254 255 252 246 241 240 240 242 242 242 248 258 266 268 259 267 279 292 292 283 285 301 305
298 296 298 295 295 289 285 283 276 274 272 266 259 251 246 243 244 247 250 249 253 254 250 247 242 243 245 248 249 248 251 258 264 267 266 265 272 277 282 284 282 290 304
293 292 292 291 295 290 284 280 276 273 271 265 258 254 248 246 248 250 249 249 251 251 247 245 243 243 246 251 254 253 254 259 263 264 264 270 276 277 273 272 275 283 291
287 287 286 287 293 293 284 281 277 274 274 268 261 254 246 244 247 249 250 249 249 248 246 244 243 246 249 254 256 256 258 262 265 266 268 275 274 271 274 276 279 280 279
282 282 281 284 289 291 287 284 278 274 272 267 260 258 252 248 247 247 249 249 249 247 244 241 241 246 250 253 257 259 260 262 260 262 268 270 271 273 277 280 282 283 281
278 278 281 285 287 288 288 286 280 277 273 270 263 261 258 254 251 251 251 249 248 245 243 241 242 246 249 253 257 261 262 262 263 262 264 264 266 273 280 283 285 286 283
275 278 282 285 285 286 284 282 278 276 275 273 265 258 258 257 254 254 254 250 248 246 244 242 243 245 248 253 257 260 262 263 263 263 264 267 270 272 277 282 283 285 283
Height
5884 5884 5885 5886 5886 5887 5888 5888 5889 5889 5889 5889 5889 5888 5889 5889 5889 5889 5890 5890 5891 5891 5892 5893 5893 5893 5894 5894 5894 5895 5895 5895 5896 5896 5896 5896 5897 5897 5897 5897 5897 5897 5897
5885 5885 5886 5887 5887 5888 5889 5889 5890 5890 5890 5890 5890 5890 5890 5890 5890 5891 5891 5892 5892 5893 5893 5894 5894 5895 5895 5895 5896 5896 5896 5897 5897 5897 5898 5898 5898 5898 5898 5899 5899 5899 5899
5886 5886 5887 5887 5888 5889 5890 5890 5891 5891 5891 5891 5891 5891 5891 5892 5892 5892 5893 5893 5894 5894 5895 5896 5896 5896 5896 5897 5897 5897 5898 5898 5898 5899 5899 5899 5900 5900 5900 5900 5900 5900 5900
5887 5887 5887 5888 5889 5890 5891 5891 5892 5892 5893 5893 5893 5893 5893 5893 5893 5894 5894 5895 5895 5896 5896 5897 5897 5897 5898 5898 5898 5899 5899 5899 5900 5900 5901 5901 5901 5901 5901 5901 5901 5902 5902
5887 5888 5888 5889 5890 5890 5891 5892 5893 5893 5894 5894 5894 5894 5894 5894 5895 5895 5895 5896 5896 5897 5897 5898 5898 5899 5899 5899 5900 5900 5900 5901 5901 5901 5902 5902 5902 5902 5902 5902 5903 5903 5903
5888 5888 5888 5889 5890 5891 5892 5893 5894 5894 5894 5895 5895 5895 5895 5896 5896 5896 5896 5897 5898 5898 5898 5899 5899 5900 5900 5900 5901 5901 5902 5902 5902 5903 5903 5903 5903 5903 5904 5904 5904 5904 5904
5888 5888 5889 5890 5891 5891 5892 5893 5894 5895 5895 5896 5896 5896 5896 5897 5897 5897 5898 5898 5898 5899 5899 5900 5900 5901 5901 5901 5902 5902 5903 5903 5903 5904 5904 5904 5904 5904 5905 5905 5905 5905 5905
5888 5889 5889 5890 5891 5892 5893 5894 5894 5895 5896 5896 5897 5897 5897 5897 5898 5898 5898 5899 5899 5900 5900 5900 5901 5901 5902 5902 5903 5903 5903 5904 5904 5905 5905 5905 5905 5905 5906 5906 5906 5906 5906
5889 5889 5890 5890 5891 5892 5893 5894 5895 5895 5896 5897 5897 5898 5898 5898 5898 5899 5899 5900 5900 5901 5901 5901 5902 5902 5902 5903 5903 5904 5904 5905 5905 5905 5906 5906 5906 5906 5907 5907 5907 5907 5907
5889 5890 5890 5890 5891 5892 5893 5894 5895 5895 5896 5897 5898 5898 5898 5899 5899 5899 5900 5900 5901 5901 5901 5902 5902 5903 5903 5904 5904 5904 5905 5905 5906 5906 5906 5906 5907 5907 5907 5908 5908 5908 5908
5890 5890 5890 5891 5891 5892 5893 5893 5894 5895 5896 5897 5898 5898 5899 5899 5899 5900 5901 5901 5901 5902 5902 5902 5903 5903 5904 5904 5905 5905 5905 5906 5906 5906 5907 5907 5907 5907 5908 5908 5909 5909 5909
5890 5890 5890 5890 5891 5892 5892 5893 5894 5895 5896 5897 5898 5899 5899 5900 5900 5900 5901 5901 5902 5902 5903 5903 5903 5904 5904 5905 5905 5905 5906 5906 5907 5907 5907 5907 5907 5908 5908 5909 5909 5909 5909
5890 5890 5890 5890 5890 5891 5892 5893 5894 5895 5896 5896 5898 5898 5899 5899 5900 5901 5901 5902 5902 5903 5903 5904 5904 5904 5904 5905 5905 5906 5906 5907 5907 5907 5907 5907 5908 5908 5909 5909 5909 5910 5910
5889 5889 5889 5889 5890 5891 5891 5892 5893 5894 5895 5896 5897 5898 5899 5899 5900 5901 5902 5902 5903 5903 5903 5904 5904 5905 5904 5905 5906 5906 5906 5907 5907 5907 5907 5908 5908 5908 5909 5909 5909 5910 5910
5889 5889 5889 5889 5889 5890 5891 5891 5892 5893 5895 5895 5896 5897 5898 5899 5900 5901 5901 5902 5903 5903 5903 5904 5904 5905 5905 5906 5906 5907 5907 5907 5907 5907 5908 5908 5908 5909 5909 5909 5909 5910 5910
5889 5889 5888 5888 5889 5889 5890 5890 5891 5892 5893 5895 5896 5896 5898 5899 5900 5900 5901 5902 5903 5903 5904 5904 5905 5905 5906 5906 5907 5907 5907 5907 5908 5908 5908 5908 5908 5909 5909 5909 5909 5910 5910
5889 5888 5888 5887 5888 5888 5888 5889 5890 5891 5892 5894 5895 5896 5897 5898 5899 5900 5901 5902 5902 5903 5903 5904 5905 5905 5906 5906 5906 5907 5907 5907 5908 5908 5908 5908 5908 5909 5909 5909 5909 5909 5910
5888 5887 5887 5887 5887 5887 5887 5888 5889 5890 5891 5892 5893 5894 5895 5897 5898 5899 5900 5901 5902 5902 5903 5904 5905 5905 5906 5906 5906 5907 5907 5907 5908 5908 5908 5908 5908 5909 5909 5909 5909 5909 5910
5887 5886 5886 5886 5886 5886 5886 5886 5887 5888 5889 5890 5891 5892 5894 5895 5896 5897 5899 5900 5901 5902 5902 5903 5904 5904 5905 5906 5906 5907 5907 5907 5908 5908 5908 5908 5908 5909 5909 5909 5909 5909 5909
5885 5885 5885 5885 5885 5885 5885 5885 5885 5886 5887 5888 5889 5890 5892 5893 5895 5896 5897 5898 5899 5901 5902 5903 5903 5904 5905 5905 5906 5906 5907 5907 5907 5907 5908 5908 5908 5908 5909 5909 5909 5909 5909
5884 5884 5884 5884 5884 5883 5883 5883 5883 5884 5885 5885 5886 5888 5890 5891 5893 5894 5896 5896 5898 5899 5900 5901 5902 5903 5904 5905 5905 5906 5906 5906 5907 5907 5907 5907 5908 5908 5908 5908 5908 5908 5908
5882 5882 5882 5882 5882 5881 5881 5881 5881 5882 5882 5883 5884 5886 5887 5889 5890 5892 5894 5895 5896 5897 5898 5900 5901 5902 5903 5904 5904 5905 5905 5906 5906 5906 5906 5907 5907 5907 5907 5907 5908 5908 5907
5880 5880 5880 5880 5880 5879 5879 5879 5879 5879 5880 5881 5882 5883 5884 5886 5887 5889 5891 5892 5893 5894 5896 5898 5899 5900 5901 5902 5903 5903 5904 5904 5904 5905 5905 5905 5905 5906 5906 5906 5906 5906 5906
5877 5877 5877 5877 5877 5877 5876 5876 5876 5877 5877 5878 5879 5880 5882 5883 5884 5886 5888 5889 5890 5892 5893 5895 5896 5898 5899 5900 5901 5901 5902 5902 5903 5903 5904 5904 5904 5904 5904 5904 5904 5904 5903
5874 5874 5875 5874 5874 5874 5873 5873 5873 5874 5875 5875 5876 5877 5879 5880 5882 5883 5884 5886 5887 5889 5891 5892 5894 5895 5897 5898 5899 5899 5899 5900 5900 5901 5902 5902 5902 5902 5902 5902 5902 5902 5901
5871 5871 5872 5871 5871 5870 5870 5870 5871 5871 5872 5872 5873 5874 5875 5877 5878 5880 5881 5882 5884 5886 5888 5889 5891 5892 5893 5895 5896 5897 5897 5897 5898 5898 5899 5899 5900 5900 5900 5900 5900 5900 5899